Location: ??????
(56.0120°N, 39.1740°E)
Time: 14:24:13
(UTC+00:00)

Cosmos 1331 Rocket - Pass Details

Date: 14 April 2026
Orbit: 746 x 772 km, 74.0° (Epoch: 17 May)

Event Time Altitude Azimuth Distance (km) Brightness Sun altitude
Exits shadow 23:42:01 32° 236° (SW) 1,308 4.7 -18.3°
Maximum altitude 23:44:21 60° 303° (WNW) 883 4.2 -18.1°
Drops below altitude 10° 23:49:35 10° 24° (NNE) 2,323 7.7 -17.6°
Sets 23:52:01 0° 29° (NNE) 3,249 8.9 -17.4°
